Location: Namasale
(1.5000°N, 32.6167°E)
Time: 18:00:31
(UTC+00:00)

Courier 1B - Pass Details

Date: 23 April 2021
Orbit: 962 x 1209 km, 28.3° (Epoch: 18 May)

Event Time Altitude Azimuth Distance (km) Brightness Sun altitude
Rises 18:38:41 0° 274° (W) 3,730 11.4 -41.0°
Reaches altitude 10° 18:41:46 10° 262° (W) 2,817 10.4 -41.7°
Enters shadow 18:44:36 21° 241° (WSW) 2,174 9.6 -42.4°
Maximum altitude 18:47:24 27° 207° (SSW) 1,939 - -43.0°
Drops below altitude 10° 18:53:19 10° 152° (SSE) 2,972 - -44.4°
Sets 18:56:41 0° 140° (SE) 3,974 - -45.2°
